Hourly Weather Baku

Today, 3 December, Thursday

Time Temperature Precipitation Wind Pressure Humidity
00:00 +9°C° 0 mm 5 mps 770 mmHg 86%
01:00 +8°C° 0 mm 5 mps 770 mmHg 87%
02:00 +8°C° 0 mm 6 mps 770 mmHg 88%
03:00 +8°C° 0 mm 6 mps 770 mmHg 89%
04:00 +8°C° 0 mm 6 mps 770 mmHg 88%
05:00 +8°C° 0 mm 5 mps 770 mmHg 88%
06:00 +8°C° 0 mm 5 mps 771 mmHg 87%
07:00 +8°C° 0 mm 5 mps 771 mmHg 84%
08:00 +8°C° 0 mm 5 mps 771 mmHg 81%
09:00 +8°C° 0 mm 5 mps 771 mmHg 77%
10:00 +8°C° 0 mm 5 mps 771 mmHg 76%
11:00 +9°C° 0 mm 5 mps 771 mmHg 75%
12:00 +10°C° 0 mm 4 mps 771 mmHg 73%
13:00 +10°C° 0 mm 4 mps 771 mmHg 73%
14:00 +8°C° 0 mm 5 mps 771 mmHg 73%
15:00 +8°C° 0 mm 5 mps 771 mmHg 73%
16:00 +8°C° 0 mm 5 mps 771 mmHg 74%
17:00 +8°C° 0 mm 5 mps 771 mmHg 74%
18:00 +7°C° 0 mm 5 mps 772 mmHg 74%
19:00 +7°C° 0 mm 4 mps 772 mmHg 74%
20:00 +7°C° 0 mm 4 mps 772 mmHg 73%
21:00 +7°C° 0 mm 4 mps 772 mmHg 73%
22:00 +7°C° 0 mm 4 mps 772 mmHg 72%
23:00 +7°C° 0 mm 4 mps 772 mmHg 72%

Tomorrow, 4 December, Friday

Time Temperature Precipitation Wind Pressure Humidity
00:00 +7°C° 0 mm 4 mps 772 mmHg 72%
01:00 +8°C° 0 mm 3 mps 771 mmHg 72%
02:00 +8°C° 0 mm 3 mps 771 mmHg 71%
03:00 +8°C° 0 mm 3 mps 771 mmHg 71%
04:00 +8°C° 0 mm 3 mps 771 mmHg 71%
05:00 +8°C° 0 mm 3 mps 771 mmHg 70%
06:00 +8°C° 0 mm 3 mps 771 mmHg 70%
07:00 +8°C° 0 mm 3 mps 771 mmHg 69%
08:00 +8°C° 0 mm 3 mps 771 mmHg 67%
09:00 +9°C° 0 mm 3 mps 772 mmHg 66%
10:00 +9°C° 0 mm 3 mps 771 mmHg 68%
11:00 +9°C° 0 mm 3 mps 771 mmHg 69%
12:00 +9°C° 0 mm 3 mps 771 mmHg 70%
13:00 +9°C° 0.2 mm 3 mps 770 mmHg 73%
14:00 +8°C° 0.2 mm 3 mps 770 mmHg 76%
15:00 +7°C° 0.2 mm 4 mps 770 mmHg 78%
16:00 +7°C° 0.3 mm 4 mps 770 mmHg 80%
17:00 +8°C° 0.3 mm 3 mps 770 mmHg 82%
18:00 +9°C° 0.3 mm 3 mps 770 mmHg 84%
19:00 +8°C° 0.5 mm 4 mps 770 mmHg 85%
20:00 +8°C° 0.5 mm 4 mps 770 mmHg 87%
21:00 +8°C° 0.5 mm 4 mps 770 mmHg 88%
22:00 +8°C° 0.4 mm 4 mps 770 mmHg 85%
23:00 +8°C° 0.4 mm 5 mps 769 mmHg 81%

Day after tomorrow, 5 December, Saturday

Time Temperature Precipitation Wind Pressure Humidity
00:00 +8°C° 0.4 mm 5 mps 769 mmHg 78%
01:00 +8°C° 0.2 mm 6 mps 769 mmHg 77%
02:00 +8°C° 0.2 mm 6 mps 769 mmHg 77%
03:00 +7°C° 0.2 mm 6 mps 769 mmHg 76%
04:00 +7°C° 0.1 mm 6 mps 769 mmHg 77%
05:00 +7°C° 0.1 mm 5 mps 769 mmHg 77%
06:00 +7°C° 0.1 mm 5 mps 769 mmHg 77%
07:00 +7°C° 0 mm 5 mps 769 mmHg 76%
08:00 +7°C° 0 mm 5 mps 769 mmHg 75%
09:00 +7°C° 0 mm 5 mps 770 mmHg 75%
10:00 +7°C° 0 mm 5 mps 769 mmHg 73%
11:00 +7°C° 0 mm 5 mps 769 mmHg 71%
12:00 +7°C° 0 mm 5 mps 769 mmHg 69%
13:00 +7°C° 0 mm 5 mps 769 mmHg 68%
14:00 +7°C° 0 mm 5 mps 769 mmHg 66%
15:00 +7°C° 0 mm 5 mps 769 mmHg 65%
16:00 +7°C° 0 mm 5 mps 769 mmHg 65%
17:00 +7°C° 0 mm 5 mps 769 mmHg 64%
18:00 +7°C° 0 mm 5 mps 769 mmHg 63%
19:00 +7°C° 0 mm 5 mps 769 mmHg 63%
20:00 +7°C° 0 mm 5 mps 769 mmHg 62%
21:00 +6°C° 0 mm 5 mps 769 mmHg 62%
22:00 +6°C° 0 mm 5 mps 769 mmHg 62%
23:00 +6°C° 0 mm 5 mps 769 mmHg 61%

6 December, Sunday

Time Temperature Precipitation Wind Pressure Humidity
00:00 +6°C° 0 mm 5 mps 769 mmHg 61%
01:00 +6°C° 0 mm 5 mps 769 mmHg 61%
02:00 +6°C° 0 mm 5 mps 769 mmHg 61%
03:00 +5°C° 0 mm 5 mps 769 mmHg 60%
04:00 +5°C° 0 mm 5 mps 769 mmHg 60%
05:00 +4°C° 0 mm 6 mps 769 mmHg 60%
06:00 +4°C° 0 mm 6 mps 770 mmHg 60%
07:00 +4°C° 0 mm 6 mps 770 mmHg 60%
08:00 +5°C° 0 mm 6 mps 770 mmHg 60%
09:00 +5°C° 0 mm 7 mps 770 mmHg 59%
10:00 +5°C° 0 mm 6 mps 770 mmHg 59%
11:00 +5°C° 0 mm 6 mps 770 mmHg 59%
12:00 +5°C° 0 mm 6 mps 770 mmHg 59%
13:00 +5°C° 0 mm 6 mps 770 mmHg 59%
14:00 +5°C° 0 mm 6 mps 770 mmHg 59%
15:00 +5°C° 0 mm 6 mps 770 mmHg 59%
16:00 +4°C° 0 mm 6 mps 770 mmHg 60%
17:00 +4°C° 0 mm 6 mps 770 mmHg 61%
18:00 +4°C° 0 mm 6 mps 771 mmHg 62%
19:00 +4°C° 0 mm 6 mps 771 mmHg 62%
20:00 +4°C° 0 mm 6 mps 771 mmHg 62%
21:00 +3°C° 0 mm 6 mps 771 mmHg 61%
22:00 +3°C° 0 mm 5 mps 771 mmHg 61%
23:00 +3°C° 0 mm 5 mps 771 mmHg 60%

7 December, Monday

Time Temperature Precipitation Wind Pressure Humidity
00:00 +3°C° 0 mm 5 mps 771 mmHg 60%
01:00 +3°C° 0 mm 5 mps 771 mmHg 61%
02:00 +3°C° 0 mm 5 mps 771 mmHg 62%
03:00 +3°C° 0 mm 5 mps 771 mmHg 63%
04:00 +3°C° 0 mm 5 mps 772 mmHg 63%
05:00 +4°C° 0 mm 4 mps 772 mmHg 63%
06:00 +4°C° 0 mm 4 mps 772 mmHg 63%
07:00 +4°C° 0 mm 4 mps 772 mmHg 63%
08:00 +4°C° 0 mm 4 mps 773 mmHg 62%
09:00 +4°C° 0 mm 4 mps 773 mmHg 61%
10:00 +5°C° 0 mm 4 mps 773 mmHg 60%
11:00 +5°C° 0 mm 4 mps 773 mmHg 59%
12:00 +5°C° 0 mm 4 mps 772 mmHg 58%
13:00 +5°C° 0 mm 5 mps 772 mmHg 58%
14:00 +3°C° 0 mm 5 mps 772 mmHg 59%
15:00 +3°C° 0 mm 5 mps 772 mmHg 59%
16:00 +3°C° 0 mm 5 mps 773 mmHg 61%
17:00 +4°C° 0 mm 4 mps 773 mmHg 62%
18:00 +4°C° 0 mm 4 mps 773 mmHg 63%
19:00 +3°C° 0 mm 4 mps 773 mmHg 63%
20:00 +3°C° 0 mm 4 mps 773 mmHg 64%
21:00 +3°C° 0 mm 4 mps 773 mmHg 64%
22:00 +3°C° 0 mm 4 mps 773 mmHg 64%
23:00 +3°C° 0 mm 4 mps 773 mmHg 64%

8 December, Tuesday

Time Temperature Precipitation Wind Pressure Humidity
00:00 +3°C° 0 mm 4 mps 773 mmHg 64%
01:00 +3°C° 0 mm 4 mps 773 mmHg 64%
02:00 +3°C° 0 mm 3 mps 773 mmHg 64%
03:00 +3°C° 0 mm 3 mps 773 mmHg 63%
04:00 +3°C° 0 mm 3 mps 773 mmHg 63%
05:00 +4°C° 0 mm 2 mps 773 mmHg 63%
06:00 +4°C° 0 mm 2 mps 773 mmHg 63%
07:00 +4°C° 0 mm 2 mps 774 mmHg 61%
08:00 +4°C° 0 mm 2 mps 774 mmHg 60%
09:00 +4°C° 0 mm 2 mps 774 mmHg 59%
10:00 +5°C° 0 mm 2 mps 774 mmHg 58%
11:00 +5°C° 0 mm 2 mps 774 mmHg 57%
12:00 +5°C° 0 mm 2 mps 773 mmHg 56%
13:00 +5°C° 0 mm 2 mps 773 mmHg 56%
14:00 +5°C° 0 mm 2 mps 773 mmHg 56%
15:00 +5°C° 0 mm 2 mps 773 mmHg 56%
16:00 +5°C° 0 mm 2 mps 773 mmHg 57%
17:00 +4°C° 0 mm 3 mps 773 mmHg 58%
18:00 +4°C° 0 mm 3 mps 774 mmHg 60%
19:00 +3°C° 0 mm 3 mps 774 mmHg 61%
20:00 +3°C° 0 mm 3 mps 774 mmHg 62%
21:00 +3°C° 0 mm 3 mps 774 mmHg 63%
22:00 +3°C° 0 mm 3 mps 774 mmHg 63%
23:00 +4°C° 0 mm 2 mps 773 mmHg 63%
Show more